Eau Claire, WI

1:54 AM CDT on March 25, 2017 (GMT -0500)
Chippewa Valley Regional

Weather History for KEAU - March, 2013

Change the Weather History Date:

Wednesday, March 13, 2013

  Actual Average Record
Temperature  
Mean Temperature 22 °F 30 °F  
Max Temperature 31 °F 39 °F 66 °F (2015)
Min Temperature 12 °F 20 °F -18 °F (1897)
Degree Days  
Heating Degree Days 43 35  
Month to date heating degree days 535 490  
Since 1 July heating degree days 6394 6510  
Cooling Degree Days 0 0  
Month to date cooling degree days 0 0  
Year to date cooling degree days 0 0  
Moisture  
Dew Point 6 °F    
Average Humidity 49    
Maximum Humidity 67    
Minimum Humidity 31    
Precipitation  
Precipitation T in 0.04 in 1.14 in (1927)
Month to date precipitation 1.46 0.56  
Year to date precipitation 4.03 2.26  
Snow  
Snow T in 0.30 in 9.20 in (1940)
Month to date snowfall 14.7 4.1  
Since 1 July snowfall 57.2 40.4  
Snow Depth 12.00 in    
Sea Level Pressure  
Sea Level Pressure 30.28 in    
Wind  
Wind Speed 7 mph (WNW)    
Max Wind Speed 14 mph    
Max Gust Speed 17 mph    
Visibility 10 miles    
Events Snow    
T = Trace of Precipitation, MM = Missing Value Source: NWS Daily Summary

Daily Weather History Graph

Daily Weather History Graph

Search for Another Location

Airport or City:

Trip Planner

Search our weather history database for the weather conditions in past years. The results will help you decide how hot, cold, wet, or windy it might be!

Date:

Astronomy

Mar. 13, 2013 Rise Set
Actual Time 7:21 AM CDT 7:09 PM CDT
Civil Twilight 6:52 AM CDT 7:38 PM CDT
Nautical Twilight 6:18 AM CDT 8:13 PM CDT
Astronomical Twilight 5:43 AM CDT 8:47 PM CDT
Moon 7:54 AM CDT (3/13) 9:34 PM CDT (3/13)
Length of Visible Light 12h 46m
Length of Day
11h 48m
Waxing Crescent, 4% of the Moon is Illuminated
Mar 13
Waxing Crescent
Mar 19
First Quarter
Mar 27
Full
Apr 2
Last Quarter
Apr 10
New

Hourly Weather History & Observations

Time (CDT) Temp. Windchill Dew Point Humidity Pressure Visibility Wind Dir Wind Speed Gust Speed Precip Events Conditions
12:42 AM 19.4 °F 9.5 °F 12.2 °F 74% 30.11 in 7.0 mi NNW 8.1 mph - 0.00 in Snow Light Snow
12:56 AM 19.9 °F 9.3 °F 10.9 °F 68% 30.15 in 10.0 mi NNW 9.2 mph - 0.00 in   Mostly Cloudy
1:56 AM 18.0 °F 7.7 °F 8.1 °F 65% 30.17 in 10.0 mi NNW 8.1 mph - N/A   Clear
2:56 AM 16.0 °F 7.4 °F 7.0 °F 68% 30.19 in 10.0 mi NW 5.8 mph - N/A   Clear
3:56 AM 16.0 °F 5.3 °F 5.0 °F 62% 30.20 in 10.0 mi WNW 8.1 mph - N/A   Clear
4:56 AM 15.1 °F 5.2 °F 5.0 °F 64% 30.22 in 10.0 mi WNW 6.9 mph - N/A   Partly Cloudy
5:56 AM 14.0 °F 5.1 °F 3.9 °F 64% 30.25 in 10.0 mi West 5.8 mph - N/A   Clear
6:56 AM 12.9 °F 2.6 °F 3.0 °F 65% 30.27 in 10.0 mi WNW 6.9 mph - N/A   Clear
7:56 AM 12.0 °F 5.9 °F 3.0 °F 67% 30.29 in 10.0 mi WSW 3.5 mph - N/A   Clear
8:56 AM 15.1 °F 6.4 °F 3.9 °F 61% 30.32 in 10.0 mi WNW 5.8 mph - N/A   Clear
9:56 AM 18.0 °F 9.8 °F 3.9 °F 54% 30.34 in 10.0 mi NW 5.8 mph - N/A   Clear
10:56 AM 21.9 °F 17.2 °F 3.0 °F 44% 30.35 in 10.0 mi NNE 3.5 mph - N/A   Clear
11:56 AM 25.0 °F 14.2 °F 3.0 °F 39% 30.35 in - NW 11.5 mph - N/A   Clear
12:56 PM 27.0 °F 18.0 °F 3.9 °F 37% 30.34 in 10.0 mi NW 9.2 mph - N/A   Clear
1:56 PM 28.9 °F 20.4 °F 1.9 °F 32% 30.34 in 10.0 mi NW 9.2 mph - N/A   Clear
3:56 PM 30.0 °F 20.5 °F 9.0 °F 41% 30.32 in 10.0 mi WSW 11.5 mph - N/A   Clear
4:56 PM 30.0 °F 20.0 °F 8.1 °F 40% 30.32 in 10.0 mi West 12.7 mph - N/A   Clear
5:56 PM 28.9 °F 19.8 °F 7.0 °F 40% 30.32 in 10.0 mi WSW 10.4 mph - N/A   Clear
6:56 PM 27.0 °F 20.5 °F 7.0 °F 43% 30.32 in 10.0 mi West 5.8 mph - N/A   Clear
7:56 PM 24.1 °F 19.7 °F 7.0 °F 48% 30.32 in 10.0 mi WSW 3.5 mph - N/A   Clear
8:56 PM 21.9 °F 15.7 °F 7.0 °F 53% 30.33 in 10.0 mi WSW 4.6 mph - N/A   Clear
9:56 PM 21.0 °F 16.2 °F 10.0 °F 63% 30.33 in 10.0 mi WSW 3.5 mph - N/A   Clear
10:56 PM 19.9 °F 12.1 °F 10.0 °F 65% 30.31 in 10.0 mi SW 5.8 mph - N/A   Clear
11:56 PM 19.9 °F 14.9 °F 10.9 °F 68% 30.31 in 10.0 mi SSW 3.5 mph - N/A   Clear